#timestamp,LO_Frequency,Hit,StdDev 
1527397215.6,286047001.8,N
1527397235.4,286047001.4,N
1527397255.2,286047001.8,N
1527397275.1,286047003.8,N
1527397276.0,286047003.8,N
1527397295.8,286047005.7,N
1527397315.7,286047005.6,N
1527397335.5,286047003.0,N
1527397355.3,286047004.1,N
1527397375.2,286047001.7,N
1527397395.0,286047004.2,N
1527397395.9,286047004.2,N
1527397415.8,286047001.4,N
1527397435.6,286047002.2,N
1527397455.4,286047002.8,N
1527397475.3,286046999.7,N
1527397495.1,286047002.1,N
1527397515.8,286047003.5,N
1527397535.7,286047001.6,N
1527397555.5,286047000.3,N
1527397575.4,286047000.6,N
1527397595.2,286047002.3,N
1527397615.0,286047002.1,N
1527397615.9,286047002.1,N
1527397635.8,286047001.8,N
1527397655.6,286047003.2,N
1527397675.5,286047011.9,Y
1527397695.3,286047004.4,P
1527397715.1,286047003.9,P
1527397735.9,286047003.1,P
1527397755.7,286047003.9,Y
1527397775.6,286047002.8,P
1527397795.4,286047004.4,P
1527397815.2,286047002.0,P
1527397835.1,286047003.9,Y
1527397836.0,286047003.9,P
1527397855.8,286046998.4,P
1527397875.7,286047000.4,N
1527397895.5,286047000.9,N
1527397915.3,286046996.9,N
1527397935.2,286046995.9,N
1527397955.9,286046996.6,N
1527397975.7,286046999.2,N
1527397995.6,286046999.1,N
1527398015.4,286046999.0,N
1527398035.2,286046999.0,N
1527398055.1,286046998.9,N
1527398056.0,286046998.9,N
1527398075.8,286046998.1,N
1527398095.7,286046998.5,N
1527398115.5,286046998.8,N
1527398135.3,286046998.0,N
1527398155.2,286046995.5,N
1527398175.0,286046993.3,Y
1527398175.9,286046993.3,P
1527398195.8,286046995.9,N
1527398215.6,286046994.0,N
1527398235.4,286046993.8,N
1527398255.3,286046993.8,Y
1527398275.1,286047000.7,P
1527398295.8,286047002.4,N
1527398315.7,286047001.8,N
1527398335.5,286047000.7,N
1527398355.4,286047002.8,N
1527398375.2,286047001.8,N
1527398395.0,286047000.1,N
1527398395.9,286047000.1,N
1527398415.8,286046998.7,N
1527398435.6,286046998.7,N
1527398455.4,286046999.4,N
1527398475.3,286046998.3,N
1527398495.1,286046998.8,N
1527398515.9,286046998.3,N
1527398535.7,286046998.8,N
1527398555.5,286046999.4,N
1527398575.4,286046999.5,N
1527398595.2,286046998.9,N
1527398615.1,286046999.1,N
1527398616.0,286046999.1,N
1527398635.8,286046999.4,N
1527398655.6,286046998.5,N
1527398675.5,286046999.4,N
1527398695.3,286046998.6,N
1527398715.1,286047001.1,N
1527398735.9,286047000.9,N
1527398755.7,286046998.3,N
1527398775.6,286047001.0,N
1527398795.4,286046998.7,N
1527398815.2,286046998.9,N
1527398835.1,286046999.0,N
1527398836.0,286046999.0,N
1527398855.8,286046996.9,N
1527398875.6,286046995.4,Y
1527398895.5,286046997.3,P
1527398915.3,286046998.3,N
1527398935.2,286046996.5,P
1527398955.9,286046998.0,N
1527398975.7,286046997.0,Y
1527398995.6,286047001.9,P
1527399015.4,286047000.5,N
1527399035.3,286047000.6,N
1527399055.1,286047000.5,N
1527399056.0,286047000.5,N
1527399075.8,286047001.1,N
1527399095.7,286047000.1,N
1527399115.5,286046998.6,N
1527399135.3,286047000.0,N
1527399155.2,286046996.7,Y
1527399175.0,286046995.7,P
1527399175.9,286046995.7,N
1527399195.8,286046994.9,N
1527399215.6,286046995.0,N
1527399235.4,286046995.3,N
1527399255.3,286046996.0,N
1527399275.1,286046994.9,Y
1527399295.8,286046998.8,P
1527399315.7,286047000.8,N
1527399335.5,286047001.1,N
1527399355.4,286047000.0,N
1527399375.2,286047002.1,N
1527399395.0,286047000.2,N
1527399395.9,286047000.2,N
1527399415.8,286047001.8,N
1527399435.6,286047002.2,N
1527399455.4,286047002.8,N
1527399475.3,286047000.9,N
1527399495.1,286047000.8,N
1527399515.9,286047000.2,N
1527399535.7,286047001.6,N
1527399555.5,286047002.0,N
1527399575.4,286047002.4,N
1527399595.2,286047000.2,N
1527399615.1,286047000.4,N
1527399616.0,286047000.4,N
1527399635.8,286046996.9,N
1527399655.6,286046996.7,N
1527399675.5,286046999.5,N
1527399695.3,286046998.9,N
1527399715.1,286046998.9,N
1527399735.9,286046996.6,N
1527399755.7,286046998.5,N
1527399775.6,286047000.4,N
1527399795.4,286046999.3,N
1527399815.2,286047000.3,N
1527399835.1,286047002.3,N
1527399836.0,286047002.3,N
1527399855.8,286047002.1,N
1527399875.6,286047000.4,N
1527399895.5,286047001.2,N
1527399915.3,286047000.4,N
1527399935.2,286047001.0,N
1527399955.9,286047000.5,N
1527399975.7,286047000.2,N
1527399995.6,286046998.6,N
1527400015.4,286046999.8,N
1527400035.3,286047000.8,N
1527400055.1,286047000.8,N
1527400056.0,286047000.8,N
1527400075.8,286047000.1,N
1527400095.7,286046998.6,N
1527400115.5,286046998.3,N
1527400135.3,286046999.9,N
1527400155.2,286046996.8,N
1527400175.0,286046997.6,N
1527400175.9,286046997.6,N
1527400195.8,286046996.8,N
1527400215.6,286046997.7,N
1527400235.4,286046995.4,N
1527400255.3,286046996.8,N
1527400275.1,286046996.7,N
1527400295.9,286046997.8,N
1527400315.7,286046996.7,N
1527400335.5,286046996.1,N
1527400355.4,286046996.1,N
1527400375.2,286046993.9,Y
1527400395.0,286046996.4,P
1527400396.0,286046996.4,N
1527400415.8,286046995.7,P
1527400435.6,286046996.1,Y
1527400455.5,286046996.8,P
1527400475.3,286046997.7,P
1527400495.1,286046999.3,N
1527400515.9,286046996.5,Y
1527400535.7,286046999.3,P
1527400555.6,286046998.5,N
1527400575.4,286046999.9,N
1527400595.3,286047000.5,N
1527400615.1,286047002.7,N
1527400616.0,286047002.7,N
1527400635.8,286047002.2,N
1527400655.7,286046999.8,N
1527400675.5,286046999.9,N
1527400695.3,286047000.8,N
1527400715.2,286046998.9,N
1527400735.0,286046998.6,N
1527400735.9,286046998.6,N
1527400755.8,286047002.3,N
1527400775.6,286047001.7,N
1527400795.4,286047002.5,N
